Regional Weather Roundup
Issued by NWS

Home | Current Version | Previous Version | Graphics & Text | Print | Product List | Glossary On
Versions: 1 2 3 4 5 6 7 8 9 10 11 12 13 14 15 16 17 18 19 20 21 22 23 24 25 26 27 28 29 30 31 32 33 34 35 36 37 38 39 40 41 42 43 44 45 46 47 48 49 50
000
ASUS43 KLMK 291002
RWRKY
KENTUCKY REGIONAL WEATHER ROUNDUP
NATIONAL WEATHER SERVICE LOUISVILLE KY
600 AM EDT MON JUN 29 2015

NOTE "FAIR" INDICATES FEW OR NO CLOUDS BELOW 12,000 FEET
WITH NO SIGNIFICANT WEATHER AND/OR OBSTRUCTIONS TO VISIBILITY.

KYZ001>023-026-027-061>063-070>075-291100-
WESTERN AND SOUTH CENTRAL KENTUCKY

CITY           SKY/WX    TMP DP  RH WIND       PRES   REMARKS
PADUCAH        CLEAR     70  65  84 SW12      29.81S
HENDERSON      CLEAR     66  63  88 S12       29.77F
OWENSBORO      PTCLDY    68  65  90 S12       29.81S
HOPKINSVILLE   MOCLDY    69  65  85 SW13      29.87S
BOWLING GREEN  CLOUDY    71  59  65 S10       29.88S
GLASGOW        NOT AVBL
$$

KYZ024-025-028>034-038-045-046-053-291100-
NORTH CENTRAL KENTUCKY

CITY           SKY/WX    TMP DP  RH WIND       PRES   REMARKS
LOUISVILLE/SDF LGT RAIN  69  58  67 S10       29.83F
LOUISVILLE/LOU CLOUDY    67  58  72 S3        29.84F
FORT KNOX      CLOUDY    66  59  78 S8        29.84R
$$

KYZ035>037-039>044-047>052-055>060-089>105-291100-
NORTHEAST KENTUCKY

CITY           SKY/WX    TMP DP  RH WIND       PRES   REMARKS
LEXINGTON      MOCLDY    65  54  67 S9        29.90F
COVINGTON      LGT RAIN  62  60  93 NE7       29.89R FOG
FRANKFORT      CLOUDY    65  54  67 S6        29.87F
$$

KYZ054-064>069-076>088-106>120-291100-
SOUTHEAST KENTUCKY

CITY           SKY/WX    TMP DP  RH WIND       PRES   REMARKS
JACKSON        PTCLDY    58  53  84 S3        29.96S
LONDON         CLEAR     58  52  80 CALM      29.96S
SOMERSET       NOT AVBL
MIDDLESBORO    CLEAR     53  53  99 CALM      30.00S
MONTICELLO     MOSUNNY   61  57  86 S6        29.97S
$$



USA.gov is the U.S. government's official web portal to all federal, state and local government web resources and services.